�v������,���r���O(���x),�����t���O,���r���O(���x),�����t���O,��1(���x),�����t���O,�������x,�����t���O,�C�ۑ�(���x),�����t���O,�C�ۑ�(���x),�����t���O
5/1/2003 0:00,22,0,60.7,0,23.3,0,17.5,0,15.4,0,20.8,0
5/1/2003 0:15,21.9,0,60.1,0,23.2,0,17.5,0,15.3,0,21.8,0
5/1/2003 0:30,21.8,0,59.7,0,23.1,0,17.6,0,15.3,0,22.8,0
5/1/2003 0:45,21.7,0,59.2,0,23.1,0,17.6,0,15.2,0,23.8,0
5/1/2003 1:00,21.6,0,59,0,23,0,17.7,0,15.2,0,24.8,0
5/1/2003 1:15,21.5,0,56.6,0,22.9,0,17.8,0,15,0,26.3,0
5/1/2003 1:30,21.4,0,57.3,0,22.8,0,17.8,0,14.9,0,27.8,0
5/1/2003 1:45,21.3,0,57.7,0,22.8,0,17.9,0,14.7,0,29.3,0
5/1/2003 2:00,21.2,0,58.9,0,22.7,0,17.9,0,14.6,0,30.8,0
5/1/2003 2:15,21.2,0,59.5,0,22.7,0,18,0,14.3,0,32,0
5/1/2003 2:30,21.1,0,58.4,0,22.6,0,18,0,14.1,0,33.3,0
5/1/2003 2:45,21,0,58.5,0,22.5,0,18.1,0,13.8,0,34.5,0
5/1/2003 3:00,20.9,0,58.5,0,22.4,0,17.2,0,13.6,0,35.8,0
5/1/2003 3:15,20.9,0,58.4,0,22.3,0,17.2,0,13.4,0,36.5,0
5/1/2003 3:30,20.8,0,58.1,0,22.2,0,17.3,0,13.3,0,37.3,0
5/1/2003 3:45,20.8,0,58,0,22.1,0,17.3,0,13.1,0,38,0
5/1/2003 4:00,20.7,0,57.8,0,22,0,17.4,0,13,0,38.8,0
5/1/2003 4:15,20.6,0,57.5,0,21.9,0,17.4,0,12.9,0,36.8,0
5/1/2003 4:30,20.4,0,57.5,0,21.8,0,17.4,0,12.7,0,34.8,0
5/1/2003 4:45,20.2,0,57.3,0,21.6,0,17.5,0,12.6,0,32.8,0
5/1/2003 5:00,20.1,0,56.9,0,21.5,0,17.5,0,12.5,0,30.8,0
5/1/2003 5:15,19.9,0,54.7,0,21.4,0,17.6,0,12.5,0,29,0
5/1/2003 5:30,19.7,0,54.6,0,21.3,0,17.6,0,12.5,0,27.3,0
5/1/2003 5:45,19.5,0,51.9,0,21.2,0,17.6,0,12.6,0,25.5,0
5/1/2003 6:00,19.3,0,52.8,0,21.1,0,17.7,0,12.6,0,23.8,0
5/1/2003 6:15,19.2,0,53.2,0,20.9,0,17.7,0,12.8,0,22.8,0
5/1/2003 6:30,19.2,0,51.8,0,20.9,0,17.8,0,13,0,21.8,0
5/1/2003 6:45,19.2,0,55.6,0,20.8,0,17,0,13.2,0,20.8,0
5/1/2003 7:00,19.3,0,54.6,0,20.8,0,17.1,0,13.4,0,19.8,0
5/1/2003 7:15,19.5,0,57.3,0,20.7,0,17.1,0,13.7,0,18.3,0
5/1/2003 7:30,20,0,58,0,20.7,0,16.8,0,14,0,16.8,0
5/1/2003 7:45,20.4,0,56.2,0,20.7,0,16.9,0,14.4,0,15.3,0
5/1/2003 8:00,20.5,0,55.2,0,20.7,0,16.9,0,14.7,0,13.8,0
5/1/2003 8:15,20.5,0,54.1,0,20.7,0,16.9,0,14.9,0,14.3,0
5/1/2003 8:30,20.4,0,53.5,0,20.7,0,17,0,15.1,0,14.8,0
5/1/2003 8:45,20.3,0,52.7,0,20.7,0,17,0,15.4,0,15.3,0
5/1/2003 9:00,20.3,0,51.8,0,20.7,0,17,0,15.6,0,15.8,0
5/1/2003 9:15,20.2,0,51.3,0,20.8,0,17.1,0,15.6,0,15.6,0
5/1/2003 9:30,20.1,0,50.5,0,20.8,0,17.1,0,15.5,0,15.3,0
5/1/2003 9:45,20.1,0,50.1,0,20.8,0,17.1,0,15.5,0,15.1,0
5/1/2003 10:00,20,0,49.9,0,20.9,0,17.2,0,15.5,0,14.8,0
5/1/2003 10:15,20,0,49.7,0,21,0,17.2,0,15.9,0,15.1,0
5/1/2003 10:30,19.9,0,49.5,0,21,0,17.2,0,16.3,0,15.3,0
5/1/2003 10:45,20,0,49.4,0,21.1,0,17.3,0,16.7,0,15.6,0
5/1/2003 11:00,20,0,49.2,0,21.2,0,17.3,0,17.1,0,15.8,0
5/1/2003 11:15,20,0,49.3,0,21.3,0,17.3,0,17.3,0,16,0
5/1/2003 11:30,20.1,0,49.3,0,21.5,0,17.3,0,17.4,0,16.3,0
5/1/2003 11:45,20.2,0,49.2,0,21.6,0,17.4,0,17.6,0,16.5,0
5/1/2003 12:00,20.3,0,49.4,0,21.7,0,17.4,0,17.8,0,16.8,0
5/1/2003 12:15,20.4,0,49.5,0,21.8,0,17.4,0,17.9,0,16.5,0
5/1/2003 12:30,20.5,0,49.6,0,22,0,17.5,0,18,0,16.3,0
5/1/2003 12:45,20.7,0,49.6,0,22.1,0,17.5,0,18.2,0,16,0
5/1/2003 13:00,20.9,0,49.5,0,22.3,0,17.5,0,18.3,0,15.8,0
5/1/2003 13:15,21.1,0,49.5,0,22.5,0,17.5,0,18.2,0,16.8,0
5/1/2003 13:30,21.3,0,49.4,0,22.6,0,17.6,0,18.2,0,17.8,0
5/1/2003 13:45,21.6,0,49.3,0,22.8,0,17.6,0,18.1,0,18.8,0
5/1/2003 14:00,21.8,0,49.1,0,23,0,17.6,0,18.1,0,19.8,0
5/1/2003 14:15,22.1,0,49,0,23.2,0,17.7,0,18.2,0,19.8,0
5/1/2003 14:30,22.3,0,49,0,23.4,0,17.7,0,18.2,0,19.8,0
5/1/2003 14:45,22.4,0,48.9,0,23.5,0,17.7,0,18.3,0,19.8,0
5/1/2003 15:00,22.6,0,48.8,0,23.7,0,17.7,0,18.4,0,19.8,0
5/1/2003 15:15,22.8,0,48.9,0,23.8,0,17.8,0,18.3,0,21.5,0
5/1/2003 15:30,23,0,48.8,0,24,0,17.8,0,18.2,0,23.3,0
5/1/2003 15:45,23.1,0,48.8,0,24.1,0,17.8,0,18.2,0,25,0
5/1/2003 16:00,23.4,0,48.7,0,24.2,0,17.9,0,18.1,0,26.8,0
5/1/2003 16:15,23.6,0,48.6,0,24.3,0,17.9,0,17.8,0,28.3,0
5/1/2003 16:30,23.8,0,48.5,0,24.4,0,17.9,0,17.5,0,29.8,0
5/1/2003 16:45,23.9,0,48.6,0,24.4,0,17.9,0,17.3,0,31.3,0
5/1/2003 17:00,24,0,48.6,0,24.5,0,18,0,17,0,32.8,0
5/1/2003 17:15,24,0,48.7,0,24.5,0,18,0,16.8,0,34.3,0
5/1/2003 17:30,23.9,0,48.7,0,24.5,0,18,0,16.7,0,35.8,0
5/1/2003 17:45,23.8,0,48.8,0,24.5,0,18,0,16.5,0,37.3,0
5/1/2003 18:00,23.7,0,48.9,0,24.4,0,18.1,0,16.4,0,38.8,0
5/1/2003 18:15,23.5,0,48.7,0,24.4,0,18.1,0,16.1,0,38.8,0
5/1/2003 18:30,23.4,0,49,0,24.3,0,18.1,0,15.9,0,38.8,0
5/1/2003 18:45,23.2,0,49.3,0,24.2,0,18.2,0,15.6,0,38.8,0
5/1/2003 19:00,23.1,0,49.4,0,24.1,0,18.2,0,15.4,0,38.8,0
5/1/2003 19:15,23,0,49.3,0,24,0,18.2,0,15.3,0,39.5,0
5/1/2003 19:30,22.8,0,49.3,0,23.9,0,18.2,0,15.2,0,40.3,0
5/1/2003 19:45,22.7,0,49.2,0,23.8,0,18.3,0,15.2,0,41,0
5/1/2003 20:00,22.5,0,49.3,0,23.6,0,18.3,0,15.1,0,41.8,0
5/1/2003 20:15,22.3,0,49.4,0,23.5,0,18.3,0,15,0,43,0
5/1/2003 20:30,22.2,0,49.5,0,23.4,0,18.3,0,14.8,0,44.3,0
5/1/2003 20:45,22,0,48.9,0,23.2,0,18.4,0,14.7,0,45.5,0
5/1/2003 21:00,21.8,0,47.8,0,23.1,0,16.9,0,14.6,0,46.8,0
5/1/2003 21:15,21.7,0,48.2,0,23,0,16.8,0,14.6,0,47.3,0
5/1/2003 21:30,21.6,0,49.3,0,22.9,0,16.7,0,14.6,0,47.8,0
5/1/2003 21:45,21.6,0,54.9,0,24.2,0,16.8,0,14.7,0,48.3,0
5/1/2003 22:00,21.5,0,54.1,0,27.6,0,16.8,0,14.7,0,48.8,0
5/1/2003 22:15,21.5,0,53.1,0,27.1,0,16.8,0,14.7,0,49.8,0
5/1/2003 22:30,21.4,0,52.6,0,26,0,16.9,0,14.8,0,50.8,0
5/1/2003 22:45,21.4,0,52.3,0,24.9,0,16.9,0,14.8,0,51.8,0
5/1/2003 23:00,21.4,0,52.7,0,24.2,0,16.7,0,14.9,0,52.8,0
5/1/2003 23:15,21.5,0,53.1,0,23.6,0,16.8,0,15,0,53.3,0
5/1/2003 23:30,21.4,0,53.5,0,23.3,0,16.8,0,15,0,53.8,0
5/1/2003 23:45,21.4,0,53.3,0,23.1,0,16.8,0,15.1,0,54.3,0
5/2/2003 0:00,21.2,0,52.9,0,22.9,0,16.9,0,15.2,0,54.8,0
5/2/2003 0:15,21.1,0,53,0,22.7,0,16.9,0,15.2,0,55.3,0
5/2/2003 0:30,21,0,52.6,0,22.5,0,17,0,15.3,0,55.8,0
5/2/2003 0:45,20.9,0,52.6,0,22.4,0,17,0,15.3,0,56.3,0
5/2/2003 1:00,20.8,0,52.5,0,22.3,0,17.1,0,15.4,0,56.8,0
5/2/2003 1:15,20.7,0,52.4,0,22.2,0,17.1,0,15.3,0,56.3,0
5/2/2003 1:30,20.6,0,52.2,0,22.1,0,17.1,0,15.2,0,55.8,0
5/2/2003 1:45,20.5,0,52.2,0,22,0,17.2,0,15.2,0,55.3,0
5/2/2003 2:00,20.4,0,52,0,22,0,17.2,0,15.1,0,54.8,0
5/2/2003 2:15,20.3,0,52.1,0,21.9,0,17.3,0,15,0,54.3,0
5/2/2003 2:30,20.2,0,52.1,0,21.9,0,17.3,0,14.8,0,53.8,0
5/2/2003 2:45,20.1,0,52,0,21.8,0,17.3,0,14.7,0,53.3,0
5/2/2003 3:00,20,0,51.8,0,21.7,0,17.4,0,14.6,0,52.8,0
5/2/2003 3:15,19.9,0,51.5,0,21.7,0,17.4,0,14.4,0,53.8,0
5/2/2003 3:30,19.8,0,51.5,0,21.6,0,17.4,0,14.1,0,54.8,0
5/2/2003 3:45,19.8,0,51.3,0,21.5,0,17.5,0,13.9,0,55.8,0
5/2/2003 4:00,19.7,0,51.2,0,21.4,0,17.5,0,13.7,0,56.8,0
5/2/2003 4:15,19.6,0,51.2,0,21.4,0,17.5,0,13.4,0,56.8,0
5/2/2003 4:30,19.5,0,51.1,0,21.2,0,17.6,0,13,0,56.8,0
5/2/2003 4:45,19.4,0,51.2,0,21.1,0,17.6,0,12.7,0,56.8,0
5/2/2003 5:00,19.3,0,51.1,0,21,0,17.6,0,12.4,0,56.8,0
5/2/2003 5:15,19.2,0,51.1,0,20.9,0,17.6,0,12.5,0,56,0
5/2/2003 5:30,19.2,0,51.1,0,20.9,0,17.7,0,12.7,0,55.3,0
5/2/2003 5:45,19.1,0,51.1,0,20.8,0,17.7,0,12.8,0,54.5,0
5/2/2003 6:00,19,0,51,0,20.7,0,17.7,0,13,0,53.8,0
5/2/2003 6:15,18.9,0,50.8,0,20.6,0,17.7,0,13.3,0,52.8,0
5/2/2003 6:30,18.8,0,50.7,0,20.6,0,17.8,0,13.6,0,51.8,0
5/2/2003 6:45,18.8,0,50.7,0,20.6,0,17.8,0,13.9,0,50.8,0
5/2/2003 7:00,18.7,0,50.8,0,20.5,0,17.8,0,14.2,0,49.8,0
5/2/2003 7:15,18.7,0,51.4,0,20.6,0,17.8,0,14.6,0,49,0
5/2/2003 7:30,19.4,0,53.3,0,20.6,0,16.8,0,15,0,48.3,0
5/2/2003 7:45,19.9,0,53.8,0,20.7,0,16.8,0,15.4,0,47.5,0
5/2/2003 8:00,20.3,0,53.5,0,20.8,0,16.6,0,15.8,0,46.8,0
5/2/2003 8:15,20.4,0,52.8,0,20.8,0,16.6,0,16.4,0,47.3,0
5/2/2003 8:30,20.5,0,52.4,0,20.9,0,16.6,0,17,0,47.8,0
5/2/2003 8:45,20.5,0,52,0,20.9,0,16.7,0,17.6,0,48.3,0
5/2/2003 9:00,20.5,0,51.7,0,21,0,16.7,0,18.2,0,48.8,0
5/2/2003 9:15,20.6,0,51.3,0,21.1,0,16.7,0,18.5,0,49,0
5/2/2003 9:30,20.6,0,51.2,0,21.2,0,16.8,0,18.8,0,49.3,0
5/2/2003 9:45,20.6,0,51.1,0,21.3,0,16.8,0,19.1,0,49.5,0
5/2/2003 10:00,20.6,0,51,0,21.4,0,16.8,0,19.4,0,49.8,0
5/2/2003 10:15,20.7,0,50.9,0,21.6,0,16.9,0,19.5,0,49.8,0
5/2/2003 10:30,20.8,0,50.9,0,21.7,0,16.9,0,19.7,0,49.8,0
5/2/2003 10:45,20.9,0,50.9,0,21.9,0,16.9,0,19.8,0,49.8,0
5/2/2003 11:00,20.9,0,51,0,22,0,17,0,20,0,49.8,0
5/2/2003 11:15,21.1,0,51,0,22.2,0,17,0,19.9,0,50.5,0
5/2/2003 11:30,21.2,0,51,0,22.3,0,17,0,19.8,0,51.3,0
5/2/2003 11:45,21.3,0,51.1,0,22.5,0,17.1,0,19.8,0,52,0
5/2/2003 12:00,21.4,0,51,0,22.6,0,17.1,0,19.7,0,52.8,0
5/2/2003 12:15,21.5,0,51,0,22.8,0,17.2,0,19.8,0,52.8,0
5/2/2003 12:30,21.7,0,51,0,22.9,0,17.2,0,20,0,52.8,0
5/2/2003 12:45,21.8,0,50.9,0,23.1,0,17.2,0,20.1,0,52.8,0
5/2/2003 13:00,21.9,0,50.9,0,23.2,0,17.3,0,20.3,0,52.8,0
5/2/2003 13:15,22.1,0,50.8,0,23.4,0,17.3,0,20.2,0,52.5,0
5/2/2003 13:30,22.2,0,50.7,0,23.5,0,17.3,0,20.1,0,52.3,0
5/2/2003 13:45,22.4,0,50.6,0,23.7,0,17.4,0,20.1,0,52,0
5/2/2003 14:00,22.6,0,50.5,0,23.8,0,17.4,0,20,0,51.8,0
5/2/2003 14:15,22.8,0,50.4,0,23.9,0,17.5,0,20,0,52.3,0
5/2/2003 14:30,23,0,50.3,0,24.1,0,17.5,0,19.9,0,52.8,0
5/2/2003 14:45,23.1,0,50.2,0,24.2,0,17.6,0,19.9,0,53.3,0
5/2/2003 15:00,23.2,0,50.1,0,24.3,0,17.6,0,19.9,0,53.8,0
5/2/2003 15:15,23.3,0,50,0,24.4,0,17.6,0,19.8,0,54,0
5/2/2003 15:30,23.3,0,50,0,24.4,0,17.7,0,19.7,0,54.3,0
5/2/2003 15:45,23.4,0,50,0,24.5,0,17.7,0,19.7,0,54.5,0
5/2/2003 16:00,23.5,0,49.9,0,24.5,0,17.8,0,19.6,0,54.8,0
5/2/2003 16:15,23.6,0,49.8,0,24.6,0,17.8,0,19.4,0,55.5,0
5/2/2003 16:30,23.8,0,49.6,0,24.7,0,17.9,0,19.2,0,56.3,0
5/2/2003 16:45,23.9,0,49.5,0,24.8,0,17.9,0,19.1,0,57,0
5/2/2003 17:00,23.9,0,49.6,0,25,0,17.9,0,18.9,0,57.8,0
5/2/2003 17:15,24,0,49.8,0,25,0,18,0,18.8,0,58.8,0
5/2/2003 17:30,23.9,0,50,0,25,0,18,0,18.8,0,59.8,0
5/2/2003 17:45,23.9,0,50.2,0,24.9,0,18.1,0,18.7,0,60.8,0
5/2/2003 18:00,23.8,0,50.2,0,24.8,0,18.1,0,18.7,0,61.8,0
5/2/2003 18:15,23.7,0,50.6,0,24.7,0,17.2,0,18.6,0,62.8,0
5/2/2003 18:30,23.7,0,51.2,0,24.6,0,16.8,0,18.5,0,63.8,0
5/2/2003 18:45,23.6,0,51.4,0,24.6,0,16.8,0,18.4,0,64.8,0
5/2/2003 19:00,23.6,0,51.4,0,24.5,0,16.9,0,18.3,0,65.8,0
5/2/2003 19:15,23.5,0,51.6,0,24.4,0,17,0,18.3,0,65.6,0
5/2/2003 19:30,23.5,0,51.7,0,24.3,0,17,0,18.3,0,65.3,0
5/2/2003 19:45,23.4,0,51.8,0,24.2,0,17.1,0,18.4,0,65.1,0
5/2/2003 20:00,23.4,0,51.9,0,24.2,0,16.7,0,18.4,0,64.8,0
5/2/2003 20:15,23.4,0,52.7,0,24.1,0,16.8,0,18.4,0,64.8,0
5/2/2003 20:30,23.4,0,53.5,0,24,0,16.9,0,18.4,0,64.8,0
5/2/2003 20:45,23.5,0,54.8,0,24,0,16.9,0,18.4,0,64.8,0
5/2/2003 21:00,23.5,0,55.3,0,23.9,0,17,0,18.4,0,64.8,0
5/2/2003 21:15,23.6,0,55.5,0,23.9,0,17.1,0,18.4,0,64.6,0
5/2/2003 21:30,23.6,0,55.4,0,23.9,0,17.1,0,18.4,0,64.3,0
5/2/2003 21:45,23.7,0,54.8,0,23.8,0,16.3,0,18.4,0,64.1,0
5/2/2003 22:00,23.8,0,53.9,0,23.8,0,16.4,0,18.4,0,63.8,0
5/2/2003 22:15,24.1,0,55.7,0,23.8,0,16.5,0,18.4,0,63.5,0
5/2/2003 22:30,24.2,0,56.2,0,23.9,0,16.5,0,18.4,0,63.3,0
5/2/2003 22:45,24.4,0,55.4,0,23.9,0,16.6,0,18.5,0,63,0
5/2/2003 23:00,24.4,0,54.7,0,23.9,0,16.7,0,18.5,0,62.8,0
5/2/2003 23:15,24.5,0,54.4,0,23.9,0,16.8,0,18.5,0,62.8,0
5/2/2003 23:30,24.6,0,54.3,0,24,0,16.8,0,18.5,0,62.8,0
5/2/2003 23:45,24.7,0,54.4,0,24,0,16.9,0,18.5,0,62.8,0
5/3/2003 0:00,24.8,0,54.4,0,24,0,17,0,18.5,0,62.8,0
5/3/2003 0:15,24.8,0,54,0,24,0,17.1,0,18.4,0,64.1,0
5/3/2003 0:30,24.9,0,53.7,0,24,0,17.1,0,18.3,0,65.3,0
5/3/2003 0:45,24.9,0,53.5,0,24.1,0,17.2,0,18.3,0,66.6,0
5/3/2003 1:00,24.9,0,53.4,0,24.1,0,17.3,0,18.2,0,67.8,0
5/3/2003 1:15,24.9,0,53.1,0,24.1,0,17.3,0,18.2,0,68.3,0
5/3/2003 1:30,25,0,53.3,0,24.1,0,17.4,0,18.1,0,68.8,0
5/3/2003 1:45,25,0,53.2,0,24.1,0,17.5,0,18.1,0,69.3,0
5/3/2003 2:00,25,0,53.8,0,24.8,0,17,0,18.1,0,69.8,0
5/3/2003 2:15,25,0,55.1,0,29,0,17.1,0,18,0,70.3,0
5/3/2003 2:30,25,0,55.6,0,28.9,0,17.2,0,17.9,0,70.8,0
5/3/2003 2:45,24.9,0,55.7,0,27.9,0,16.5,0,17.8,0,71.3,0
5/3/2003 3:00,24.8,0,55.8,0,27,0,16.5,0,17.7,0,71.8,0
5/3/2003 3:15,24.8,0,55.6,0,26.3,0,16.6,0,17.6,0,71.6,0
5/3/2003 3:30,24.7,0,55.3,0,25.7,0,16.7,0,17.5,0,71.3,0
5/3/2003 3:45,24.7,0,58.9,0,25.3,0,16.8,0,17.5,0,71.1,0
5/3/2003 4:00,24.6,0,58.5,0,24.9,0,16.8,0,17.4,0,70.8,0
5/3/2003 4:15,24.6,0,57.9,0,24.7,0,16.9,0,17.3,0,71.1,0
5/3/2003 4:30,24.5,0,56.8,0,24.5,0,17,0,17.1,0,71.3,0
5/3/2003 4:45,24.5,0,56,0,24.4,0,17.1,0,17,0,71.6,0
5/3/2003 5:00,24.4,0,55.4,0,24.3,0,17.2,0,16.9,0,71.8,0
5/3/2003 5:15,24.3,0,55,0,24.2,0,17.2,0,16.9,0,72.3,0
5/3/2003 5:30,24.2,0,54.8,0,24.2,0,17.3,0,16.9,0,72.8,0
5/3/2003 5:45,24.2,0,55.1,0,24.1,0,16.5,0,16.9,0,73.3,0
5/3/2003 6:00,24.1,0,55.9,0,24,0,16.5,0,16.9,0,73.8,0
5/3/2003 6:15,23.9,0,56,0,24,0,16.6,0,16.9,0,73.8,0
5/3/2003 6:30,23.9,0,57.6,0,23.9,0,16.7,0,17,0,73.8,0
5/3/2003 6:45,23.8,0,57.8,0,23.8,0,16.8,0,17,0,73.8,0
5/3/2003 7:00,23.7,0,58.6,0,23.7,0,16.6,0,17.1,0,73.8,0
5/3/2003 7:15,23.7,0,58.7,0,23.7,0,16.7,0,17.2,0,73.1,0
5/3/2003 7:30,23.6,0,59.4,0,23.7,0,16.6,0,17.3,0,72.3,0
5/3/2003 7:45,23.5,0,59.6,0,23.7,0,16.6,0,17.5,0,71.6,0
5/3/2003 8:00,23.5,0,59.6,0,23.7,0,16.7,0,17.6,0,70.8,0
5/3/2003 8:15,23.5,0,59.8,0,23.7,0,16.8,0,17.9,0,69.3,0
5/3/2003 8:30,23.4,0,59.9,0,23.7,0,16.8,0,18.2,0,67.8,0
5/3/2003 8:45,23.4,0,59.9,0,23.8,0,16.9,0,18.5,0,66.3,0
5/3/2003 9:00,23.4,0,59.8,0,23.8,0,17,0,18.8,0,64.8,0
5/3/2003 9:15,23.4,0,60,0,23.8,0,17.1,0,19.2,0,62.8,0
5/3/2003 9:30,23.4,0,60.5,0,23.9,0,17.1,0,19.7,0,60.8,0
5/3/2003 9:45,23.4,0,60.6,0,23.9,0,17.2,0,20.1,0,58.8,0
5/3/2003 10:00,23.4,0,60.5,0,23.9,0,17.3,0,20.6,0,56.8,0
5/3/2003 10:15,23.4,0,60.2,0,24,0,17.4,0,21,0,55,0
5/3/2003 10:30,23.5,0,60,0,24.1,0,17.4,0,21.5,0,53.3,0
5/3/2003 10:45,23.5,0,59.9,0,24.2,0,17.5,0,21.9,0,51.5,0
5/3/2003 11:00,23.6,0,59.8,0,24.3,0,17.6,0,22.4,0,49.8,0
5/3/2003 11:15,23.6,0,59.7,0,24.4,0,17.6,0,22.8,0,49.5,0
5/3/2003 11:30,23.7,0,59.5,0,24.5,0,17.7,0,23.2,0,49.3,0
5/3/2003 11:45,23.8,0,59.6,0,24.6,0,17.8,0,23.7,0,49,0
5/3/2003 12:00,23.9,0,59.3,0,24.8,0,17.8,0,24.1,0,48.8,0
5/3/2003 12:15,24,0,59.2,0,25,0,17.9,0,23.9,0,49,0
5/3/2003 12:30,24.2,0,59.1,0,25.2,0,18,0,23.7,0,49.3,0
5/3/2003 12:45,24.3,0,58.8,0,25.4,0,18,0,23.5,0,49.5,0
5/3/2003 13:00,24.4,0,58.6,0,25.6,0,18.1,0,23.3,0,49.8,0
5/3/2003 13:15,24.6,0,58.3,0,25.8,0,18.2,0,23.4,0,48.8,0
5/3/2003 13:30,24.8,0,57.9,0,26,0,18.2,0,23.5,0,47.8,0
5/3/2003 13:45,25,0,57.6,0,26.3,0,18.3,0,23.7,0,46.8,0
5/3/2003 14:00,25.2,0,57.2,0,26.5,0,18.4,0,23.8,0,45.8,0
5/3/2003 14:15,25.5,0,56.8,0,26.7,0,18.4,0,23.9,0,47,0
5/3/2003 14:30,25.6,0,56.6,0,26.9,0,18.5,0,24,0,48.3,0
5/3/2003 14:45,25.7,0,56.4,0,27.1,0,18.6,0,24.1,0,49.5,0
5/3/2003 15:00,25.9,0,56.3,0,27.2,0,18.6,0,24.2,0,50.8,0
5/3/2003 15:15,26.1,0,55.9,0,27.4,0,18.7,0,24,0,53.3,0
5/3/2003 15:30,26.3,0,55.9,0,27.6,0,18.7,0,23.8,0,55.8,0
5/3/2003 15:45,26.5,0,55.5,0,27.7,0,18.8,0,23.7,0,58.3,0
5/3/2003 16:00,26.7,0,55.2,0,27.9,0,18.9,0,23.5,0,60.8,0
5/3/2003 16:15,26.9,0,54.9,0,28,0,18.9,0,23.4,0,61.5,0
5/3/2003 16:30,27.1,0,54.7,0,28.2,0,19,0,23.2,0,62.3,0
5/3/2003 16:45,27.2,0,54.6,0,28.3,0,19.1,0,23.1,0,63,0
5/3/2003 17:00,27.3,0,54.6,0,28.4,0,19.1,0,23,0,63.8,0
5/3/2003 17:15,27.4,0,55.3,0,28.4,0,19.2,0,22.9,0,64.3,0
5/3/2003 17:30,27.4,0,55.5,0,28.5,0,19.3,0,22.7,0,64.8,0
5/3/2003 17:45,27.4,0,55.7,0,28.5,0,19.2,0,22.6,0,65.3,0
5/3/2003 18:00,27.2,0,56,0,28.6,0,19.2,0,22.5,0,65.8,0
5/3/2003 18:15,27.1,0,56,0,28.6,0,19.3,0,22.4,0,66.1,0
5/3/2003 18:30,27,0,56.1,0,28.5,0,19.4,0,22.3,0,66.3,0
5/3/2003 18:45,26.8,0,56.1,0,28.5,0,19.6,0,22.3,0,66.6,0
5/3/2003 19:00,26.7,0,56.4,0,28.4,0,19.7,0,22.2,0,66.8,0
5/3/2003 19:15,26.6,0,56.6,0,28.4,0,19.7,0,22,0,67.1,0
5/3/2003 19:30,26.5,0,56.8,0,28.3,0,19.8,0,21.7,0,67.3,0
5/3/2003 19:45,26.3,0,57.1,0,28.2,0,19.8,0,21.5,0,67.6,0
5/3/2003 20:00,26.2,0,57.2,0,28.2,0,19.9,0,21.3,0,67.8,0
5/3/2003 20:15,26.1,0,57.5,0,28.1,0,19.9,0,21.1,0,69.3,0
5/3/2003 20:30,26,0,57.7,0,28,0,20,0,20.9,0,70.8,0
5/3/2003 20:45,25.9,0,57.9,0,27.9,0,20.1,0,20.8,0,72.3,0
5/3/2003 21:00,25.8,0,58.1,0,27.9,0,20.2,0,20.6,0,73.8,0
5/3/2003 21:15,25.7,0,58.3,0,27.8,0,20.2,0,20.5,0,74.3,0
5/3/2003 21:30,25.6,0,58.5,0,27.7,0,20.3,0,20.4,0,74.8,0
5/3/2003 21:45,25.5,0,58.7,0,27.6,0,20.4,0,20.3,0,75.3,0
5/3/2003 22:00,25.4,0,59,0,27.5,0,20.4,0,20.2,0,75.8,0
5/3/2003 22:15,25.4,0,59.6,0,27.4,0,17.8,0,20.2,0,76.1,0
5/3/2003 22:30,25.4,0,60.3,0,27.3,0,17.9,0,20.2,0,76.3,0
5/3/2003 22:45,25.4,0,60.2,0,27.3,0,17.9,0,20.2,0,76.6,0
5/3/2003 23:00,25.5,0,60,0,27.3,0,18,0,20.2,0,76.8,0
5/3/2003 23:15,25.5,0,59.8,0,27.2,0,18.1,0,20,0,77.8,0
5/3/2003 23:30,25.5,0,59.5,0,27.1,0,18.2,0,19.8,0,78.8,0
5/3/2003 23:45,25.5,0,59.3,0,27.1,0,18.3,0,19.7,0,79.8,0
5/4/2003 0:00,25.4,0,59.2,0,27,0,18.4,0,19.5,0,80.8,0
5/4/2003 0:15,25.4,0,59.1,0,26.9,0,18.5,0,19.3,0,81.8,0
5/4/2003 0:30,25.4,0,58.9,0,26.9,0,18.6,0,19.1,0,82.8,0
5/4/2003 0:45,25.4,0,58.8,0,26.8,0,18.6,0,19,0,83.8,0
5/4/2003 1:00,25.3,0,58.7,0,26.7,0,18.7,0,18.8,0,84.8,0
5/4/2003 1:15,25.1,0,58.6,0,26.7,0,18,0,18.7,0,84.1,0
5/4/2003 1:30,24.9,0,58.8,0,26.7,0,18.1,0,18.7,0,83.3,0
5/4/2003 1:45,24.8,0,59.2,0,26.6,0,18.2,0,18.6,0,82.6,0
5/4/2003 2:00,24.6,0,59.4,0,26.6,0,18.2,0,18.6,0,81.8,0
5/4/2003 2:15,24.5,0,59.6,0,26.5,0,18.3,0,18.5,0,82.1,0
5/4/2003 2:30,24.4,0,59.8,0,26.5,0,18.4,0,18.4,0,82.3,0
5/4/2003 2:45,24.3,0,60,0,26.4,0,18.5,0,18.3,0,82.6,0
5/4/2003 3:00,24.2,0,60.3,0,26.3,0,18.5,0,18.2,0,82.8,0
5/4/2003 3:15,24.1,0,60.4,0,26.3,0,18.6,0,18.1,0,83.6,0
5/4/2003 3:30,24,0,60.7,0,26.2,0,18.7,0,18,0,84.3,0
5/4/2003 3:45,23.9,0,60.9,0,26.1,0,18.7,0,18,0,85.1,0
5/4/2003 4:00,23.9,0,61.1,0,26.1,0,18.8,0,17.9,0,85.8,0
5/4/2003 4:15,23.8,0,61.2,0,26,0,18.9,0,17.9,0,85.8,0
5/4/2003 4:30,23.7,0,61.4,0,25.9,0,18.9,0,17.9,0,85.8,0
5/4/2003 4:45,23.6,0,61.4,0,25.9,0,19,0,18,0,85.8,0
5/4/2003 5:00,23.5,0,61.7,0,25.8,0,19.1,0,18,0,85.8,0
5/4/2003 5:15,23.5,0,61.8,0,25.7,0,19.1,0,18.1,0,85.3,0
5/4/2003 5:30,23.4,0,61.9,0,25.7,0,19.2,0,18.2,0,84.8,0
5/4/2003 5:45,23.4,0,62,0,25.6,0,19.2,0,18.3,0,84.3,0
5/4/2003 6:00,23.3,0,62.1,0,25.6,0,19.3,0,18.4,0,83.8,0
5/4/2003 6:15,23.3,0,62.1,0,25.5,0,19.4,0,18.6,0,82.3,0
5/4/2003 6:30,23.2,0,62.2,0,25.5,0,19.4,0,18.8,0,80.8,0
5/4/2003 6:45,23.2,0,62.2,0,25.4,0,19.6,0,19.1,0,79.3,0
5/4/2003 7:00,23.2,0,62.3,0,25.4,0,19.6,0,19.3,0,77.8,0
5/4/2003 7:15,23.2,0,62.2,0,25.4,0,19.7,0,19.7,0,76.6,0
5/4/2003 7:30,23.2,0,62.3,0,25.4,0,19.8,0,20.1,0,75.3,0
5/4/2003 7:45,23.2,0,62.2,0,25.4,0,19.8,0,20.5,0,74.1,0
5/4/2003 8:00,23.3,0,62,0,25.5,0,19.8,0,20.9,0,72.8,0
5/4/2003 8:15,23.3,0,62.1,0,25.5,0,19.9,0,21.3,0,71.6,0
5/4/2003 8:30,23.4,0,62.2,0,25.6,0,19.9,0,21.7,0,70.3,0
5/4/2003 8:45,23.5,0,62.2,0,25.7,0,17.7,0,22.1,0,69.1,0
5/4/2003 9:00,23.7,0,62.8,0,25.8,0,17,0,22.5,0,67.8,0
5/4/2003 9:15,23.8,0,62.6,0,25.8,0,17.1,0,22.7,0,66.3,0
5/4/2003 9:30,24,0,62.1,0,25.9,0,17.2,0,22.8,0,64.8,0
5/4/2003 9:45,24.1,0,61.6,0,26,0,17.3,0,23,0,63.3,0
5/4/2003 10:00,24.2,0,61.2,0,26.1,0,17.3,0,23.2,0,61.8,0
5/4/2003 10:15,24.4,0,60.9,0,26.3,0,17.4,0,23.4,0,60.8,0
5/4/2003 10:30,24.5,0,60.5,0,26.4,0,17.5,0,23.6,0,59.8,0
5/4/2003 10:45,24.7,0,60.2,0,26.6,0,17.6,0,23.8,0,58.8,0
5/4/2003 11:00,24.9,0,59.7,0,26.7,0,17.7,0,24,0,57.8,0
5/4/2003 11:15,25,0,59.5,0,26.9,0,17.8,0,24.2,0,56.5,0
5/4/2003 11:30,25.3,0,55.3,0,27.1,0,17.8,0,24.4,0,55.3,0
5/4/2003 11:45,25.5,0,53.1,0,27.2,0,17.5,0,24.6,0,54,0
5/4/2003 12:00,25.7,0,53.5,0,27.4,0,17.5,0,24.8,0,52.8,0
5/4/2003 12:15,25.9,0,53.9,0,27.5,0,17.6,0,24.6,0,53.3,0
5/4/2003 12:30,26,0,54.3,0,27.7,0,17.7,0,24.4,0,53.8,0
5/4/2003 12:45,26,0,54.6,0,27.8,0,17.8,0,24.3,0,54.3,0
5/4/2003 13:00,26.1,0,54.8,0,27.9,0,17.8,0,24.1,0,54.8,0
5/4/2003 13:15,26.1,0,54.9,0,28,0,17.9,0,24.3,0,53.8,0
5/4/2003 13:30,26.2,0,53.9,0,28.1,0,18,0,24.5,0,52.8,0
5/4/2003 13:45,26.3,0,54.1,0,28.2,0,18.1,0,24.8,0,51.8,0
5/4/2003 14:00,26.5,0,54.4,0,28.3,0,18.2,0,25,0,50.8,0
5/4/2003 14:15,26.6,0,55.2,0,28.4,0,18.3,0,24.7,0,50.8,0
5/4/2003 14:30,26.7,0,52.9,0,28.5,0,18.3,0,24.4,0,50.8,0
5/4/2003 14:45,26.8,0,50.9,0,28.6,0,18.4,0,24.2,0,50.8,0
5/4/2003 15:00,26.7,0,49.2,0,28.7,0,18.5,0,23.9,0,50.8,0
5/4/2003 15:15,26.8,0,48.9,0,28.5,0,18.6,0,23.8,0,53.3,0
5/4/2003 15:30,26.8,0,45.9,0,28.4,0,18.7,0,23.8,0,55.8,0
5/4/2003 15:45,27.1,0,47.3,0,28.2,0,18.8,0,23.7,0,58.3,0
5/4/2003 16:00,27.1,0,46.2,0,28.1,0,18.9,0,23.7,0,60.8,0
5/4/2003 16:15,27.1,0,47.8,0,28.1,0,18.9,0,23.4,0,62.6,0
5/4/2003 16:30,27,0,48.7,0,28.2,0,19,0,23.1,0,64.3,0
5/4/2003 16:45,27.1,0,50.9,0,28.4,0,19.1,0,22.8,0,66.1,0
5/4/2003 17:00,27.1,0,52.9,0,28.5,0,19.1,0,22.5,0,67.8,0
5/4/2003 17:15,26.9,0,54.1,0,28.6,0,19.2,0,22.4,0,68.3,0
5/4/2003 17:30,26.8,0,54.5,0,28.7,0,19.3,0,22.4,0,68.8,0
5/4/2003 17:45,26.6,0,55.7,0,28.8,0,19.4,0,22.3,0,69.3,0
5/4/2003 18:00,26.5,0,56.5,0,28.7,0,19.5,0,22.3,0,69.8,0
5/4/2003 18:15,26.3,0,57.2,0,28.7,0,19.5,0,22.1,0,70.6,0
5/4/2003 18:30,26.1,0,58.1,0,28.6,0,19.6,0,21.9,0,71.3,0
5/4/2003 18:45,26.2,0,58,0,28.5,0,19.7,0,21.8,0,72.1,0
5/4/2003 19:00,26.3,0,58.4,0,28.5,0,19.8,0,21.6,0,72.8,0
5/4/2003 19:15,26.3,0,58.1,0,28.4,0,19.9,0,21.5,0,73.1,0
5/4/2003 19:30,26.3,0,57.8,0,28.3,0,19.9,0,21.4,0,73.3,0
5/4/2003 19:45,26.3,0,57.6,0,28.2,0,20,0,21.3,0,73.6,0
5/4/2003 20:00,26.3,0,57.6,0,28.2,0,20.1,0,21.2,0,73.8,0
5/4/2003 20:15,26.3,0,57.5,0,28.1,0,20.2,0,21.1,0,74.1,0
5/4/2003 20:30,26.2,0,57.4,0,28,0,20.2,0,21.1,0,74.3,0
5/4/2003 20:45,26.2,0,57.4,0,27.9,0,20.3,0,21,0,74.6,0
5/4/2003 21:00,26.1,0,57.3,0,27.9,0,20.4,0,21,0,74.8,0
5/4/2003 21:15,26,0,57.3,0,27.8,0,20.4,0,20.9,0,73.8,0
5/4/2003 21:30,26,0,57.3,0,27.7,0,20.5,0,20.8,0,72.8,0
5/4/2003 21:45,25.9,0,57.3,0,27.6,0,20.5,0,20.8,0,71.8,0
5/4/2003 22:00,25.8,0,57.2,0,27.5,0,20.6,0,20.7,0,70.8,0
5/4/2003 22:15,25.8,0,57.2,0,27.4,0,20.7,0,20.5,0,72.1,0
5/4/2003 22:30,25.7,0,57.3,0,27.3,0,20.7,0,20.4,0,73.3,0
5/4/2003 22:45,25.6,0,57.3,0,27.3,0,20.8,0,20.2,0,74.6,0
5/4/2003 23:00,25.5,0,57.5,0,27.2,0,19.2,0,20.1,0,75.8,0
5/4/2003 23:15,25.6,0,58.3,0,27.1,0,17.7,0,20,0,76.6,0
5/4/2003 23:30,25.5,0,58.3,0,27.1,0,17.8,0,20,0,77.3,0
5/4/2003 23:45,25.5,0,58.3,0,27,0,17.9,0,19.9,0,78.1,0
5/5/2003 0:00,25.4,0,58.2,0,27,0,18,0,19.9,0,78.8,0
5/5/2003 0:15,25.3,0,58.2,0,26.9,0,18.1,0,19.9,0,79.3,0
5/5/2003 0:30,25.3,0,58.3,0,26.9,0,18.2,0,19.8,0,79.8,0
5/5/2003 0:45,25.2,0,58.3,0,26.8,0,18.3,0,19.8,0,80.3,0
5/5/2003 1:00,25.1,0,58.3,0,26.8,0,18.4,0,19.8,0,80.8,0
5/5/2003 1:15,25.1,0,58.3,0,26.7,0,18.5,0,19.8,0,80.6,0
5/5/2003 1:30,25,0,58.3,0,26.7,0,18.6,0,19.8,0,80.3,0
5/5/2003 1:45,24.9,0,58.3,0,26.7,0,18.6,0,19.8,0,80.1,0
5/5/2003 2:00,24.9,0,58.3,0,26.6,0,18.7,0,19.8,0,79.8,0
5/5/2003 2:15,24.8,0,58.3,0,26.6,0,18.8,0,19.5,0,80.6,0
5/5/2003 2:30,24.8,0,58.3,0,26.5,0,18.9,0,19.2,0,81.3,0
5/5/2003 2:45,24.7,0,58.3,0,26.5,0,18.9,0,19,0,82.1,0
5/5/2003 3:00,24.6,0,58.2,0,26.4,0,19,0,18.7,0,82.8,0
5/5/2003 3:15,24.6,0,58.1,0,26.4,0,19.1,0,18.4,0,81.6,0
5/5/2003 3:30,24.5,0,58,0,26.3,0,19.2,0,18.1,0,80.3,0
5/5/2003 3:45,24.4,0,57.9,0,26.3,0,19.2,0,17.8,0,79.1,0
5/5/2003 4:00,24.4,0,57.7,0,26.2,0,19.3,0,17.5,0,77.8,0
5/5/2003 4:15,24.3,0,57.5,0,26.1,0,19.4,0,17.5,0,76.3,0
5/5/2003 4:30,24.2,0,57.1,0,26,0,19.4,0,17.4,0,74.8,0
5/5/2003 4:45,24.1,0,56.9,0,26,0,19.5,0,17.4,0,73.3,0
5/5/2003 5:00,24,0,56.5,0,25.9,0,19.6,0,17.4,0,71.8,0
5/5/2003 5:15,23.9,0,56.3,0,25.8,0,19.6,0,17.2,0,70.8,0
5/5/2003 5:30,23.8,0,56.2,0,25.7,0,19.7,0,17.1,0,69.8,0
5/5/2003 5:45,23.7,0,56,0,25.6,0,19.7,0,16.9,0,68.8,0
5/5/2003 6:00,23.6,0,56,0,25.6,0,19.8,0,16.8,0,67.8,0
5/5/2003 6:15,23.6,0,55.9,0,25.5,0,19.8,0,16.8,0,67.6,0
5/5/2003 6:30,23.5,0,55.8,0,25.4,0,19.9,0,16.8,0,67.3,0
5/5/2003 6:45,23.4,0,55.8,0,25.4,0,19.9,0,16.9,0,67.1,0
5/5/2003 7:00,23.4,0,55.6,0,25.3,0,20,0,16.9,0,66.8,0
5/5/2003 7:15,23.4,0,56,0,25.3,0,20,0,17.2,0,64.8,0
5/5/2003 7:30,23.4,0,56.3,0,25.3,0,17.9,0,17.5,0,62.8,0
5/5/2003 7:45,23.4,0,56.5,0,25.3,0,18,0,17.9,0,60.8,0
5/5/2003 8:00,23.4,0,56.7,0,25.3,0,18.1,0,18.2,0,58.8,0
5/5/2003 8:15,23.5,0,58.9,0,25.3,0,18.1,0,18.6,0,57.8,0
5/5/2003 8:30,23.7,0,59.8,0,25.3,0,18.2,0,19.1,0,56.8,0
5/5/2003 8:45,23.7,0,60.3,0,25.3,0,18.3,0,19.5,0,55.8,0
5/5/2003 9:00,23.7,0,59.5,0,25.3,0,18.3,0,20,0,54.8,0
5/5/2003 9:15,23.7,0,54.1,0,25.3,0,18.4,0,20.3,0,53.3,0